Regional Weather Roundup
Issued by NWS

Home | Current Version | Previous Version | Graphics & Text | Print | Product List | Glossary On
Versions: 1 2 3 4 5 6 7 8 9 10 11 12 13 14 15 16 17 18 19 20 21 22 23 24 25 26 27 28 29 30 31 32 33 34 35 36 37 38 39 40 41 42 43 44 45 46 47 48 49 50
000
ASUS43 KOAX 312302
RWRNE

WEATHER ROUNDUP FOR NEBRASKA
NATIONAL WEATHER SERVICE OMAHA NE
600 PM CDT FRI JUL 31 2015

NOTES: SATELLITE DATA IS BEING USED TO AUGMENT CLOUD COVER ABOVE
       12000 FEET.
       "FAIR" INDICATES FEW OR NO CLOUDS BELOW 12,000 FEET WITH NO
       SIGNIFICANT WEATHER AND/OR OBSTRUCTIONS TO VISIBILITY.

  * THESE STATIONS DO NOT REPORT WEATHER SUCH AS RAIN...SNOW OR FOG.

NEZ001>004-019>022-054>056-010000-
NEBRASKA PANHANDLE

CITY           SKY/WX    TMP DP  RH WIND       PRES   REMARKS
SCOTTSBLUFF    MOSUNNY   89  47  23 S13       30.16F
ALLIANCE       MOSUNNY   82  54  37 E10       30.17F
CHADRON        SUNNY     92  52  25 S12       30.10F
KIMBALL        PTSUNNY   79  49  35 CALM      30.22F
SIDNEY         PTSUNNY   90  46  21 SE6       30.19F
$$

NEZ057>060-069>072-079>082-010000-
SOUTHWEST NEBRASKA

CITY           SKY/WX    TMP DP  RH WIND       PRES   REMARKS
NORTH PLATTE   MOSUNNY   89  60  37 E8        30.10F
IMPERIAL       SUNNY     93  47  20 E7        30.12F
MCCOOK         SUNNY     95  54  25 SW6       30.08F HX  93
$$

NEZ005>010-023>029-035>040-094-010000-
NORTH CENTRAL NEBRASKA

CITY           SKY/WX    TMP DP  RH WIND       PRES   REMARKS
VALENTINE      SUNNY     95  44  17 N9        30.09F HX  91
BROKEN BOW     MOSUNNY   92  61  35 W9        30.08F HX  92
ORD            PTSUNNY   70  65  84 SE7       30.07F
$$

NEZ041-046>049-061>064-073>077-083>087-010000-
SOUTH CENTRAL NEBRASKA

CITY           SKY/WX    TMP DP  RH WIND       PRES   REMARKS
GRAND ISLAND   PTSUNNY   75  62  64 NE26G37   30.13R
AURORA         PTSUNNY   79  59  49 E15G22    30.11R
HASTINGS       SUNNY     91  63  39 S5        30.07F HX  92
KEARNEY *      SUNNY     91  64  40 SW10      30.07S HX  93
$$

NEZ011>018-030>034-042>045-010000-
NORTHEAST NEBRASKA

CITY           SKY/WX    TMP DP  RH WIND       PRES   REMARKS
NORFOLK        MOSUNNY   81  60  48 SW14      30.07S
BLAIR          CLOUDY    82  74  75 N6        30.06S
COLUMBUS *     CLOUDY    75  59  57 NW5       30.09S
TEKAMAH        PTSUNNY   84  77  79 CALM      30.05R HX  94
$$

NEZ050>053-065>068-078-088>093-010000-
SOUTHEAST NEBRASKA

CITY           SKY/WX    TMP DP  RH WIND       PRES   REMARKS
LINCOLN        PTSUNNY   87  71  58 NW8       30.06R HX  93
OMAHA EPPLEY   CLOUDY    85  78  80 N5        30.03S HX  96
FALLS CITY     SUNNY     89  73  59 VRB5      30.03F HX  97
$$

NEZ044-045-051>053-067-010000-
OMAHA AREA

CITY           SKY/WX    TMP DP  RH WIND       PRES   REMARKS
OMAHA EPPLEY   CLOUDY    85  78  80 N5        30.03S HX  96
BLAIR          CLOUDY    82  74  75 N6        30.06S
OFFUTT AFB     CLOUDY    86  74  68 SW2       30.03S HX  94
$$


USA.gov is the U.S. government's official web portal to all federal, state and local government web resources and services.